timestamp,surface_pressure_avg,surface_temp_avg,battery_voltage,lat,long
2019-01-18 00:00:00+00:00,220.6281,1.01,12.97,47.84626,-54.09684
2019-01-18 00:10:00+00:00,214.528,1.0,12.89,47.84626,-54.09684
2019-01-18 00:20:00+00:00,209.2348,1.0,13.05,47.84626,-54.09684
2019-01-18 00:30:00+00:00,204.3232,1.0,13.05,47.84626,-54.09684
2019-01-18 00:40:00+00:00,198.2615,1.0,13.05,47.84626,-54.09684
2019-01-18 00:50:00+00:00,194.2948,1.0,13.05,47.84626,-54.09684
2019-01-18 01:00:00+00:00,191.9948,1.03,12.97,47.84626,-54.09684
2019-01-18 01:10:00+00:00,187.1964,1.0,12.89,47.84626,-54.09684
2019-01-18 01:20:00+00:00,185.4065,1.0,12.97,47.84626,-54.09684
2019-01-18 01:30:00+00:00,184.5815,1.0,12.97,47.84626,-54.09684
2019-01-18 01:40:00+00:00,178.5132,1.0,13.05,47.84626,-54.09684
2019-01-18 01:50:00+00:00,175.5298,1.0,13.05,47.84626,-54.09684
2019-01-18 02:00:00+00:00,179.2815,1.0,12.97,47.84626,-54.09684
2019-01-18 02:10:00+00:00,180.7132,1.0,12.89,47.84626,-54.09684
2019-01-18 02:20:00+00:00,179.2165,1.0,12.97,47.84626,-54.09684
2019-01-18 02:30:00+00:00,183.4581,1.0,12.97,47.84626,-54.09684
2019-01-18 02:40:00+00:00,185.6382,1.0,12.97,47.84626,-54.09684
2019-01-18 02:50:00+00:00,180.7665,0.99,12.97,47.84626,-54.09684
2019-01-18 03:00:00+00:00,182.2148,0.95,12.89,47.84626,-54.09684
2019-01-18 03:10:00+00:00,187.6082,0.97,12.81,47.84626,-54.09684
2019-01-18 03:20:00+00:00,188.4514,0.95,12.97,47.84626,-54.09684
2019-01-18 03:30:00+00:00,190.1648,0.93,12.97,47.84626,-54.09684
2019-01-18 03:40:00+00:00,194.9665,0.97,12.97,47.84626,-54.09684
2019-01-18 03:50:00+00:00,197.2631,1.0,12.97,47.84626,-54.09684
2019-01-18 04:00:00+00:00,198.4764,0.98,12.89,47.84626,-54.09684
2019-01-18 04:10:00+00:00,202.6048,1.0,12.81,47.84626,-54.09684
2019-01-18 04:20:00+00:00,208.1182,1.0,12.89,47.84626,-54.09684
2019-01-18 04:30:00+00:00,210.6798,1.0,12.89,47.84626,-54.09684
2019-01-18 04:40:00+00:00,213.0247,1.0,12.97,47.84626,-54.09684
2019-01-18 04:50:00+00:00,215.8415,1.0,12.97,47.84626,-54.09684
2019-01-18 05:00:00+00:00,218.9431,1.0,12.89,47.84626,-54.09684
2019-01-18 05:10:00+00:00,227.0514,1.0,12.81,47.84626,-54.09684
2019-01-18 05:20:00+00:00,236.1097,1.0,12.89,47.84626,-54.09684
2019-01-18 05:30:00+00:00,241.4714,1.0,12.89,47.84626,-54.09684
2019-01-18 05:40:00+00:00,249.9048,1.0,12.89,47.84626,-54.09684
2019-01-18 05:50:00+00:00,262.9114,1.0,12.97,47.84626,-54.09684
2019-01-18 06:00:00+00:00,272.438,0.98,12.81,47.84626,-54.09684
2019-01-18 06:10:00+00:00,278.7664,0.9,12.81,47.84626,-54.09684
2019-01-18 06:20:00+00:00,287.6697,0.86,12.89,47.84626,-54.09684
2019-01-18 06:30:00+00:00,299.668,0.8,12.89,47.84626,-54.09684
2019-01-18 06:40:00+00:00,304.408,0.83,12.89,47.84626,-54.09684
2019-01-18 06:50:00+00:00,308.4713,0.85,12.89,47.84626,-54.09684
2019-01-18 07:00:00+00:00,319.033,0.8,12.81,47.84626,-54.09684
2019-01-18 07:10:00+00:00,323.9046,0.8,12.73,47.84626,-54.09684
2019-01-18 07:20:00+00:00,324.2713,0.8,12.89,47.84626,-54.09684
2019-01-18 07:30:00+00:00,330.8896,0.8,12.89,47.84626,-54.09684
2019-01-18 07:40:00+00:00,337.8397,0.76,12.89,47.84626,-54.09684
2019-01-18 07:50:00+00:00,336.563,0.78,12.89,47.84626,-54.09684
2019-01-18 08:00:00+00:00,332.9997,0.77,12.81,47.84626,-54.09684
2019-01-18 08:10:00+00:00,336.7146,0.72,12.73,47.84626,-54.09684
2019-01-18 08:20:00+00:00,337.818,0.75,12.81,47.84626,-54.09684
2019-01-18 08:30:00+00:00,336.0397,0.8,12.81,47.84626,-54.09684
2019-01-18 08:40:00+00:00,337.1279,0.8,12.89,47.84626,-54.09684
2019-01-18 08:50:00+00:00,339.2329,0.8,12.89,47.84626,-54.09684
2019-01-18 09:00:00+00:00,335.7396,0.79,12.81,47.84626,-54.09684
2019-01-18 09:10:00+00:00,334.1646,0.78,12.73,47.84626,-54.09684
2019-01-18 09:20:00+00:00,343.1029,0.72,12.81,47.84626,-54.09684
2019-01-18 09:30:00+00:00,343.5914,0.7,12.81,47.84626,-54.09684
2019-01-18 09:40:00+00:00,337.0197,0.7,12.81,47.84626,-54.09684
2019-01-18 09:50:00+00:00,339.9113,0.7,12.89,47.84626,-54.09684
2019-01-18 10:00:00+00:00,343.7163,0.7,12.73,47.84626,-54.09684
2019-01-18 10:10:00+00:00,339.3663,0.7,12.73,47.84626,-54.09684
2019-01-18 10:20:00+00:00,332.1813,0.7,12.81,47.84626,-54.09684
2019-01-18 10:30:00+00:00,335.4046,0.7,12.81,47.84626,-54.09684
2019-01-18 10:40:00+00:00,332.6146,0.7,12.81,47.84626,-54.09684
2019-01-18 10:50:00+00:00,321.0597,0.7,12.81,47.84626,-54.09684
2019-01-18 11:00:00+00:00,316.8763,0.7,12.73,47.84626,-54.09684
2019-01-18 11:10:00+00:00,317.258,0.7,12.65,47.84626,-54.09684
2019-01-18 11:20:00+00:00,310.843,0.7,12.81,47.84626,-54.09684
2019-01-18 11:30:00+00:00,303.0914,0.7,12.89,47.84626,-54.09684
2019-01-18 11:40:00+00:00,302.6797,0.7,13.37,47.84626,-54.09684
2019-01-18 11:50:00+00:00,299.808,0.7,15.27,47.84626,-54.09684
2019-01-18 12:00:00+00:00,290.178,0.7,16.23,47.84626,-54.09684
2019-01-18 12:10:00+00:00,284.1897,0.7,17.03,47.84626,-54.09684
2019-01-18 12:20:00+00:00,280.983,0.7,17.18,47.84626,-54.09684
2019-01-18 12:30:00+00:00,274.4548,0.7,17.03,47.84626,-54.09684
2019-01-18 12:40:00+00:00,267.2747,0.7,17.11,47.84626,-54.09684
2019-01-18 12:50:00+00:00,264.4431,0.7,17.03,47.84626,-54.09684
2019-01-18 13:00:00+00:00,259.9597,0.7,16.15,47.84626,-54.09684
2019-01-18 13:10:00+00:00,252.6964,0.7,15.99,47.84626,-54.09684
2019-01-18 13:20:00+00:00,247.2598,0.7,16.79,47.84626,-54.09684
2019-01-18 13:30:00+00:00,244.0598,0.7,16.23,47.84626,-54.09684
2019-01-18 13:40:00+00:00,240.2464,0.7,16.07,47.84626,-54.09684
2019-01-18 13:50:00+00:00,237.2514,0.69,15.35,47.84626,-54.09684
2019-01-18 14:00:00+00:00,236.6314,0.61,15.51,47.84626,-54.09684
2019-01-18 14:10:00+00:00,234.6864,0.6,15.51,47.84626,-54.09684
2019-01-18 14:20:00+00:00,231.0331,0.6,15.11,47.84626,-54.09684
2019-01-18 14:30:00+00:00,229.5297,0.6,14.88,47.84626,-54.09684
2019-01-18 14:40:00+00:00,228.8114,0.6,14.88,47.84626,-54.09684
2019-01-18 14:50:00+00:00,222.1864,0.6,15.67,47.84626,-54.09684
2019-01-18 15:00:00+00:00,217.3214,0.6,15.35,47.84626,-54.09684
2019-01-18 15:10:00+00:00,218.6531,0.6,14.96,47.84626,-54.09684
2019-01-18 15:20:00+00:00,218.8631,0.6,15.04,47.84626,-54.09684
2019-01-18 15:30:00+00:00,213.3531,0.6,15.04,47.84626,-54.09684
2019-01-18 15:40:00+00:00,213.4598,0.6,14.88,47.84626,-54.09684
2019-01-18 15:50:00+00:00,219.3364,0.62,14.8,47.84626,-54.09684
2019-01-18 16:00:00+00:00,217.6448,0.64,14.8,47.84626,-54.09684
2019-01-18 16:10:00+00:00,214.2531,0.6,14.64,47.84626,-54.09684
2019-01-18 16:20:00+00:00,220.8215,0.56,14.72,47.84626,-54.09684
2019-01-18 16:30:00+00:00,226.6414,0.5,14.88,47.84626,-54.09684
2019-01-18 16:40:00+00:00,225.0781,0.47,14.8,47.84626,-54.09684
2019-01-18 16:50:00+00:00,228.8131,0.4,14.72,47.84626,-54.09684
2019-01-18 17:00:00+00:00,235.8681,0.4,14.56,47.84626,-54.09684
2019-01-18 17:10:00+00:00,236.5481,0.4,14.48,47.84626,-54.09684
2019-01-18 17:20:00+00:00,235.3064,0.4,14.56,47.84626,-54.09684
2019-01-18 17:30:00+00:00,237.8781,0.43,14.56,47.84626,-54.09684
2019-01-18 17:40:00+00:00,242.2831,0.49,14.56,47.84626,-54.09684
2019-01-18 17:50:00+00:00,243.7498,0.5,14.48,47.84626,-54.09684
2019-01-18 18:00:00+00:00,250.1231,0.5,14.32,47.84626,-54.09684
2019-01-18 18:10:00+00:00,259.2397,0.52,14.24,47.84626,-54.09684
2019-01-18 18:20:00+00:00,266.3731,0.57,14.24,47.84626,-54.09684
2019-01-18 18:30:00+00:00,269.9614,0.6,14.24,47.84626,-54.09684
2019-01-18 18:40:00+00:00,276.0764,0.6,14.16,47.84626,-54.09684
2019-01-18 18:50:00+00:00,281.9581,0.68,14.16,47.84626,-54.09684
2019-01-18 19:00:00+00:00,287.0081,0.72,14.0,47.84626,-54.09684
2019-01-18 19:10:00+00:00,295.2513,0.79,13.84,47.84626,-54.09684
2019-01-18 19:20:00+00:00,303.2813,0.8,13.84,47.84626,-54.09684
2019-01-18 19:30:00+00:00,303.7447,0.8,13.76,47.84626,-54.09684
2019-01-18 19:40:00+00:00,305.9296,0.8,13.68,47.84626,-54.09684
2019-01-18 19:50:00+00:00,313.1797,0.8,13.68,47.84626,-54.09684
2019-01-18 20:00:00+00:00,320.243,0.8,13.53,47.84626,-54.09684
2019-01-18 20:10:00+00:00,323.588,0.8,13.37,47.84626,-54.09684
2019-01-18 20:20:00+00:00,326.3297,0.8,13.29,47.84626,-54.09684
2019-01-18 20:30:00+00:00,330.1597,0.84,13.29,47.84626,-54.09684
2019-01-18 20:40:00+00:00,332.2163,0.84,13.29,47.84626,-54.09684
2019-01-18 20:50:00+00:00,334.2213,0.85,13.29,47.84626,-54.09684
2019-01-18 21:00:00+00:00,334.6879,0.86,13.21,47.84626,-54.09684
2019-01-18 21:10:00+00:00,336.0596,0.89,13.05,47.84626,-54.09684
2019-01-18 21:20:00+00:00,335.908,0.89,13.13,47.84626,-54.09684
2019-01-18 21:30:00+00:00,336.808,0.89,13.13,47.84626,-54.09684
2019-01-18 21:40:00+00:00,335.7496,0.88,13.13,47.84626,-54.09684
2019-01-18 21:50:00+00:00,331.9479,0.8,13.13,47.84626,-54.09684
2019-01-18 22:00:00+00:00,331.3497,0.8,13.05,47.84626,-54.09684
2019-01-18 22:10:00+00:00,334.8563,0.8,12.97,47.84626,-54.09684
2019-01-18 22:20:00+00:00,336.5447,0.7,13.05,47.84626,-54.09684
2019-01-18 22:30:00+00:00,337.088,0.6,13.05,47.84626,-54.09684
2019-01-18 22:40:00+00:00,335.2529,0.5,13.05,47.84626,-54.09684
2019-01-18 22:50:00+00:00,333.4012,0.4,13.05,47.84626,-54.09684
2019-01-18 23:00:00+00:00,325.533,0.3,12.97,47.84626,-54.09684
2019-01-18 23:10:00+00:00,319.8214,0.3,12.97,47.84626,-54.09684
2019-01-18 23:20:00+00:00,318.593,0.3,13.05,47.84626,-54.09684
2019-01-18 23:30:00+00:00,313.4913,0.27,13.05,47.84626,-54.09684
2019-01-18 23:40:00+00:00,303.353,0.2,13.05,47.84626,-54.09684
2019-01-18 23:50:00+00:00,293.5447,0.2,13.05,47.84626,-54.09684
